Time,TemperatureF,DewpointF,PressureIn,WindDirection,WindDirectionDegrees,WindSpeedMPH,WindSpeedGustMPH,Humidity,HourlyPrecipIn,Conditions,Clouds,dailyrainin,SoftwareType,DateUTC
2013-02-02 00:00:00,11.7,6.7,30.22,SSW,206,4.0,4.0,80,0.00,,,0.00,WeatherCatV1.10B1784,2013-02-02 05:00:00,
2013-02-02 00:05:00,11.7,6.7,30.21,SW,218,2.0,5.0,80,0.00,,,0.00,WeatherCatV1.10B1784,2013-02-02 05:05:00,
2013-02-02 00:10:00,11.7,6.5,30.21,SSW,199,3.0,5.0,79,0.00,,,0.00,WeatherCatV1.10B1784,2013-02-02 05:10:00,
2013-02-02 00:15:00,11.6,6.6,30.21,SSW,211,2.0,4.0,80,0.00,,,0.00,WeatherCatV1.10B1784,2013-02-02 05:15:00,
2013-02-02 00:20:00,11.5,6.6,30.21,SSW,213,2.0,4.0,80,0.00,,,0.00,WeatherCatV1.10B1784,2013-02-02 05:20:00,
2013-02-02 00:25:00,11.5,6.6,30.21,SSW,211,2.0,4.0,80,0.00,,,0.00,WeatherCatV1.10B1784,2013-02-02 05:25:00,
2013-02-02 00:30:00,11.5,6.6,30.21,South,191,1.0,5.0,80,0.00,,,0.00,WeatherCatV1.10B1784,2013-02-02 05:30:00,
2013-02-02 00:35:00,11.5,6.6,30.21,SSW,198,0.0,3.0,80,0.00,,,0.00,WeatherCatV1.10B1784,2013-02-02 05:35:00,
2013-02-02 00:40:00,11.6,6.6,30.21,SW,216,3.0,5.0,80,0.00,,,0.00,WeatherCatV1.10B1784,2013-02-02 05:40:00,
2013-02-02 00:45:00,11.7,7.0,30.21,SW,215,1.0,4.0,81,0.00,,,0.00,WeatherCatV1.10B1784,2013-02-02 05:45:00,
2013-02-02 00:50:00,11.7,7.0,30.21,WSW,244,2.0,7.0,81,0.00,,,0.00,WeatherCatV1.10B1784,2013-02-02 05:50:00,
2013-02-02 00:55:00,11.8,7.1,30.21,SSW,207,4.0,8.0,81,0.00,,,0.00,WeatherCatV1.10B1784,2013-02-02 05:55:00,
2013-02-02 01:00:00,11.9,7.2,30.20,SSW,205,3.0,4.0,81,0.00,,,0.00,WeatherCatV1.10B1784,2013-02-02 06:00:00,
2013-02-02 01:05:00,11.9,7.2,30.20,South,184,1.0,3.0,81,0.00,,,0.00,WeatherCatV1.10B1784,2013-02-02 06:05:00,
2013-02-02 01:10:00,11.9,7.2,30.20,SSW,211,2.0,3.0,81,0.00,,,0.00,WeatherCatV1.10B1784,2013-02-02 06:10:00,
2013-02-02 01:15:00,11.8,7.1,30.20,SW,221,0.0,6.0,81,0.00,,,0.00,WeatherCatV1.10B1784,2013-02-02 06:15:00,
2013-02-02 01:20:00,11.8,7.1,30.19,SW,228,2.0,3.0,81,0.00,,,0.00,WeatherCatV1.10B1784,2013-02-02 06:20:00,
2013-02-02 01:25:00,11.8,7.1,30.19,WSW,245,4.0,5.0,81,0.00,,,0.00,WeatherCatV1.10B1784,2013-02-02 06:25:00,
2013-02-02 01:30:00,11.8,7.1,30.19,WSW,257,3.0,5.0,81,0.00,,,0.00,WeatherCatV1.10B1784,2013-02-02 06:30:00,
2013-02-02 01:35:00,11.7,7.0,30.19,SW,236,1.0,5.0,81,0.00,,,0.00,WeatherCatV1.10B1784,2013-02-02 06:35:00,
2013-02-02 01:40:00,11.7,7.0,30.19,SW,229,4.0,7.0,81,0.00,,,0.00,WeatherCatV1.10B1784,2013-02-02 06:40:00,
2013-02-02 01:45:00,11.8,7.1,30.19,SW,223,2.0,4.0,81,0.00,,,0.00,WeatherCatV1.10B1784,2013-02-02 06:45:00,
2013-02-02 01:50:00,11.8,7.1,30.19,WSW,242,6.0,9.0,81,0.00,,,0.00,WeatherCatV1.10B1784,2013-02-02 06:50:00,
2013-02-02 01:55:00,11.9,7.2,30.18,SW,215,4.0,8.0,81,0.00,,,0.00,WeatherCatV1.10B1784,2013-02-02 06:55:00,
2013-02-02 02:00:00,12.0,7.3,30.18,SW,225,4.0,8.0,81,0.00,,,0.00,WeatherCatV1.10B1784,2013-02-02 07:00:00,
2013-02-02 02:05:00,12.2,7.8,30.18,SW,233,4.0,6.0,82,0.00,,,0.00,WeatherCatV1.10B1784,2013-02-02 07:05:00,
2013-02-02 02:10:00,12.4,7.7,30.18,SSW,207,3.0,10.0,81,0.00,,,0.00,WeatherCatV1.10B1784,2013-02-02 07:10:00,
2013-02-02 02:15:00,12.6,7.9,30.18,SSW,198,4.0,11.0,81,0.00,,,0.00,WeatherCatV1.10B1784,2013-02-02 07:15:00,
2013-02-02 02:20:00,12.7,8.0,30.18,WNW,288,7.0,7.0,81,0.00,,,0.00,WeatherCatV1.10B1784,2013-02-02 07:20:00,
2013-02-02 02:25:00,12.9,8.2,30.18,SSW,194,4.0,8.0,81,0.00,,,0.00,WeatherCatV1.10B1784,2013-02-02 07:25:00,
2013-02-02 02:30:00,13.0,8.3,30.17,South,181,4.0,7.0,81,0.00,,,0.00,WeatherCatV1.10B1784,2013-02-02 07:30:00,
2013-02-02 02:35:00,13.1,8.4,30.17,SSW,211,3.0,6.0,81,0.00,,,0.00,WeatherCatV1.10B1784,2013-02-02 07:35:00,
2013-02-02 02:40:00,13.1,8.4,30.17,SW,222,3.0,9.0,81,0.00,,,0.00,WeatherCatV1.10B1784,2013-02-02 07:40:00,
2013-02-02 02:45:00,13.1,8.1,30.17,SSW,207,3.0,8.0,80,0.00,,,0.00,WeatherCatV1.10B1784,2013-02-02 07:45:00,
2013-02-02 02:50:00,13.1,8.4,30.17,SSW,209,3.0,8.0,81,0.00,,,0.00,WeatherCatV1.10B1784,2013-02-02 07:50:00,
2013-02-02 02:55:00,13.1,8.4,30.17,SW,219,4.0,8.0,81,0.00,,,0.00,WeatherCatV1.10B1784,2013-02-02 07:55:00,
2013-02-02 03:00:00,13.2,8.2,30.16,SSW,197,3.0,7.0,80,0.00,,,0.00,WeatherCatV1.10B1784,2013-02-02 08:00:00,
2013-02-02 03:05:00,13.3,8.3,30.17,WSW,257,4.0,8.0,80,0.00,,,0.00,WeatherCatV1.10B1784,2013-02-02 08:05:00,
2013-02-02 03:10:00,13.3,8.3,30.16,WSW,245,3.0,7.0,80,0.00,,,0.00,WeatherCatV1.10B1784,2013-02-02 08:10:00,
2013-02-02 03:15:00,13.4,8.4,30.16,WSW,244,5.0,5.0,80,0.00,,,0.00,WeatherCatV1.10B1784,2013-02-02 08:15:00,
2013-02-02 03:20:00,13.5,8.8,30.16,SW,236,3.0,4.0,81,0.00,,,0.00,WeatherCatV1.10B1784,2013-02-02 08:20:00,
2013-02-02 03:25:00,13.6,8.9,30.16,SW,229,1.0,4.0,81,0.00,,,0.00,WeatherCatV1.10B1784,2013-02-02 08:25:00,
2013-02-02 03:30:00,13.7,9.0,30.16,West,261,5.0,10.0,81,0.00,,,0.00,WeatherCatV1.10B1784,2013-02-02 08:30:00,
2013-02-02 03:35:00,13.9,9.2,30.16,SSW,194,6.0,7.0,81,0.00,,,0.00,WeatherCatV1.10B1784,2013-02-02 08:35:00,
2013-02-02 03:40:00,14.0,9.3,30.15,SSW,208,1.0,9.0,81,0.00,,,0.00,WeatherCatV1.10B1784,2013-02-02 08:40:00,
2013-02-02 03:45:00,14.1,9.1,30.15,SW,225,4.0,9.0,80,0.00,,,0.00,WeatherCatV1.10B1784,2013-02-02 08:45:00,
2013-02-02 03:50:00,14.1,9.4,30.15,WSW,237,2.0,7.0,81,0.00,,,0.00,WeatherCatV1.10B1784,2013-02-02 08:50:00,
2013-02-02 03:55:00,14.2,9.5,30.15,South,186,4.0,10.0,81,0.00,,,0.00,WeatherCatV1.10B1784,2013-02-02 08:55:00,
2013-02-02 04:00:00,14.3,9.8,30.15,SSW,209,3.0,7.0,82,0.00,,,0.00,WeatherCatV1.10B1784,2013-02-02 09:00:00,
2013-02-02 04:05:00,14.3,9.8,30.14,SSW,196,1.0,6.0,82,0.00,,,0.00,WeatherCatV1.10B1784,2013-02-02 09:05:00,
2013-02-02 04:10:00,14.4,9.9,30.14,SSW,194,5.0,7.0,82,0.00,,,0.00,WeatherCatV1.10B1784,2013-02-02 09:10:00,
2013-02-02 04:15:00,14.4,9.9,30.14,SW,219,6.0,8.0,82,0.00,,,0.00,WeatherCatV1.10B1784,2013-02-02 09:15:00,
2013-02-02 04:20:00,14.5,10.0,30.14,SSW,198,1.0,6.0,82,0.00,,,0.00,WeatherCatV1.10B1784,2013-02-02 09:20:00,
2013-02-02 04:25:00,14.5,10.0,30.13,WSW,238,2.0,7.0,82,0.00,,,0.00,WeatherCatV1.10B1784,2013-02-02 09:25:00,
2013-02-02 04:30:00,14.6,10.1,30.13,West,261,2.0,5.0,82,0.00,,,0.00,WeatherCatV1.10B1784,2013-02-02 09:30:00,
2013-02-02 04:35:00,14.6,10.1,30.13,SW,221,7.0,7.0,82,0.00,,,0.00,WeatherCatV1.10B1784,2013-02-02 09:35:00,
2013-02-02 04:40:00,14.8,10.3,30.13,SW,231,3.0,11.0,82,0.00,,,0.00,WeatherCatV1.10B1784,2013-02-02 09:40:00,
2013-02-02 04:45:00,14.9,10.4,30.12,SW,232,1.0,5.0,82,0.00,,,0.00,WeatherCatV1.10B1784,2013-02-02 09:45:00,
2013-02-02 04:50:00,14.9,10.7,30.12,SW,232,6.0,9.0,83,0.00,,,0.00,WeatherCatV1.10B1784,2013-02-02 09:50:00,
2013-02-02 04:55:00,15.0,10.8,30.11,WSW,250,3.0,9.0,83,0.00,,,0.00,WeatherCatV1.10B1784,2013-02-02 09:55:00,
2013-02-02 05:00:00,15.1,10.9,30.11,SW,231,2.0,3.0,83,0.00,,,0.00,WeatherCatV1.10B1784,2013-02-02 10:00:00,
2013-02-02 05:05:00,15.2,11.0,30.11,WSW,254,3.0,8.0,83,0.00,,,0.00,WeatherCatV1.10B1784,2013-02-02 10:05:00,
2013-02-02 05:10:00,15.2,11.0,30.11,SW,220,2.0,4.0,83,0.00,,,0.00,WeatherCatV1.10B1784,2013-02-02 10:10:00,
2013-02-02 05:15:00,15.2,11.0,30.11,WSW,250,4.0,5.0,83,0.00,,,0.00,WeatherCatV1.10B1784,2013-02-02 10:15:00,
2013-02-02 05:20:00,15.2,11.0,30.10,SW,224,2.0,5.0,83,0.00,,,0.00,WeatherCatV1.10B1784,2013-02-02 10:20:00,
2013-02-02 05:25:00,15.2,11.0,30.10,South,186,3.0,8.0,83,0.00,,,0.00,WeatherCatV1.10B1784,2013-02-02 10:25:00,
2013-02-02 05:30:00,15.1,10.9,30.10,SSW,200,4.0,9.0,83,0.00,,,0.00,WeatherCatV1.10B1784,2013-02-02 10:30:00,
2013-02-02 05:35:00,15.1,11.2,30.10,SSW,212,3.0,5.0,84,0.00,,,0.00,WeatherCatV1.10B1784,2013-02-02 10:35:00,
2013-02-02 05:40:00,15.1,11.2,30.10,SSW,194,2.0,7.0,84,0.00,,,0.00,WeatherCatV1.10B1784,2013-02-02 10:40:00,
2013-02-02 05:45:00,15.1,11.4,30.09,SSW,192,3.0,4.0,85,0.00,,,0.00,WeatherCatV1.10B1784,2013-02-02 10:45:00,
2013-02-02 05:50:00,15.1,11.4,30.09,WSW,240,5.0,7.0,85,0.00,,,0.00,WeatherCatV1.10B1784,2013-02-02 10:50:00,
2013-02-02 05:55:00,15.1,11.4,30.09,WSW,251,4.0,9.0,85,0.00,,,0.00,WeatherCatV1.10B1784,2013-02-02 10:55:00,
2013-02-02 06:00:00,15.2,11.5,30.08,WSW,238,3.0,11.0,85,0.00,,,0.00,WeatherCatV1.10B1784,2013-02-02 11:00:00,
2013-02-02 06:05:00,15.1,11.7,30.08,SW,220,3.0,8.0,86,0.00,,,0.00,WeatherCatV1.10B1784,2013-02-02 11:05:00,
2013-02-02 06:10:00,15.1,11.7,30.08,SSW,203,2.0,7.0,86,0.00,,,0.00,WeatherCatV1.10B1784,2013-02-02 11:10:00,
2013-02-02 06:15:00,15.1,11.9,30.08,SW,234,4.0,7.0,87,0.00,,,0.00,WeatherCatV1.10B1784,2013-02-02 11:15:00,
2013-02-02 06:20:00,15.1,11.9,30.08,SSW,208,6.0,7.0,87,0.00,,,0.00,WeatherCatV1.10B1784,2013-02-02 11:20:00,
2013-02-02 06:25:00,15.1,11.9,30.08,SSW,196,4.0,6.0,87,0.00,,,0.00,WeatherCatV1.10B1784,2013-02-02 11:25:00,
2013-02-02 06:30:00,15.1,11.9,30.07,South,180,4.0,8.0,87,0.00,,,0.00,WeatherCatV1.10B1784,2013-02-02 11:30:00,
2013-02-02 06:35:00,15.1,11.9,30.07,South,190,4.0,6.0,87,0.00,,,0.00,WeatherCatV1.10B1784,2013-02-02 11:35:00,
2013-02-02 06:40:00,15.1,12.2,30.07,South,179,3.0,5.0,88,0.00,,,0.00,WeatherCatV1.10B1784,2013-02-02 11:40:00,
2013-02-02 06:45:00,15.0,12.1,30.07,SSW,209,5.0,7.0,88,0.00,,,0.00,WeatherCatV1.10B1784,2013-02-02 11:45:00,
2013-02-02 06:50:00,15.0,12.1,30.07,SSW,206,2.0,6.0,88,0.00,,,0.00,WeatherCatV1.10B1784,2013-02-02 11:50:00,
2013-02-02 06:55:00,14.9,12.0,30.07,SSW,205,2.0,7.0,88,0.00,,,0.00,WeatherCatV1.10B1784,2013-02-02 11:55:00,
2013-02-02 07:00:00,14.9,12.0,30.07,South,180,4.0,7.0,88,0.00,,,0.00,WeatherCatV1.10B1784,2013-02-02 12:00:00,
2013-02-02 07:05:00,14.8,12.2,30.07,SSW,194,4.0,5.0,89,0.00,,,0.00,WeatherCatV1.10B1784,2013-02-02 12:05:00,
2013-02-02 07:10:00,14.8,12.2,30.07,SSW,204,4.0,5.0,89,0.00,,,0.00,WeatherCatV1.10B1784,2013-02-02 12:10:00,
2013-02-02 07:15:00,14.8,12.2,30.07,South,184,3.0,6.0,89,0.00,,,0.00,WeatherCatV1.10B1784,2013-02-02 12:15:00,
2013-02-02 07:20:00,14.8,12.2,30.07,SSW,196,3.0,6.0,89,0.00,,,0.00,WeatherCatV1.10B1784,2013-02-02 12:20:00,
2013-02-02 07:25:00,14.8,12.2,30.07,SSW,200,4.0,4.0,89,0.00,,,0.00,WeatherCatV1.10B1784,2013-02-02 12:25:00,
2013-02-02 07:30:00,14.9,12.3,30.06,South,189,6.0,6.0,89,0.00,,,0.00,WeatherCatV1.10B1784,2013-02-02 12:30:00,
2013-02-02 07:35:00,14.9,12.3,30.06,South,182,4.0,5.0,89,0.00,,,0.00,WeatherCatV1.10B1784,2013-02-02 12:35:00,
2013-02-02 07:40:00,14.9,12.3,30.06,South,188,4.0,6.0,89,0.00,,,0.00,WeatherCatV1.10B1784,2013-02-02 12:40:00,
2013-02-02 07:45:00,14.9,12.3,30.06,South,186,3.0,6.0,89,0.00,,,0.00,WeatherCatV1.10B1784,2013-02-02 12:45:00,
2013-02-02 07:50:00,15.0,12.4,30.06,South,186,3.0,5.0,89,0.00,,,0.00,WeatherCatV1.10B1784,2013-02-02 12:50:00,
2013-02-02 07:55:00,15.0,12.4,30.06,South,186,4.0,7.0,89,0.00,,,0.00,WeatherCatV1.10B1784,2013-02-02 12:55:00,
2013-02-02 08:00:00,15.1,12.5,30.05,SSW,202,4.0,4.0,89,0.00,,,0.00,WeatherCatV1.10B1784,2013-02-02 13:00:00,
2013-02-02 08:05:00,15.1,12.5,30.06,SSW,212,4.0,5.0,89,0.00,,,0.00,WeatherCatV1.10B1784,2013-02-02 13:05:00,
2013-02-02 08:10:00,15.2,12.6,30.05,South,185,5.0,7.0,89,0.00,,,0.00,WeatherCatV1.10B1784,2013-02-02 13:10:00,
2013-02-02 08:15:00,15.3,12.7,30.05,South,177,2.0,6.0,89,0.00,,,0.01,WeatherCatV1.10B1784,2013-02-02 13:15:00,
2013-02-02 08:20:00,15.4,12.8,30.05,SSW,196,4.0,7.0,89,0.00,,,0.01,WeatherCatV1.10B1784,2013-02-02 13:20:00,
2013-02-02 08:25:00,15.5,12.6,30.05,South,180,2.0,6.0,88,0.00,,,0.01,WeatherCatV1.10B1784,2013-02-02 13:25:00,
2013-02-02 08:30:00,15.7,12.8,30.05,SSW,203,4.0,5.0,88,0.00,,,0.01,WeatherCatV1.10B1784,2013-02-02 13:30:00,
2013-02-02 08:35:00,15.8,12.9,30.05,SSW,200,6.0,9.0,88,0.00,,,0.01,WeatherCatV1.10B1784,2013-02-02 13:35:00,
2013-02-02 08:40:00,15.8,12.9,30.04,SW,215,3.0,7.0,88,0.00,,,0.01,WeatherCatV1.10B1784,2013-02-02 13:40:00,
2013-02-02 08:45:00,15.9,13.0,30.04,SW,226,6.0,9.0,88,0.00,,,0.01,WeatherCatV1.10B1784,2013-02-02 13:45:00,
2013-02-02 08:50:00,16.0,13.1,30.04,SSW,199,5.0,6.0,88,0.00,,,0.01,WeatherCatV1.10B1784,2013-02-02 13:50:00,
2013-02-02 08:55:00,16.2,13.3,30.04,SW,224,7.0,8.0,88,0.00,,,0.01,WeatherCatV1.10B1784,2013-02-02 13:55:00,
2013-02-02 09:00:00,16.3,13.4,30.04,SSW,206,4.0,7.0,88,0.00,,,0.01,WeatherCatV1.10B1784,2013-02-02 14:00:00,
2013-02-02 09:05:00,16.5,13.6,30.04,SSW,213,2.0,5.0,88,0.00,,,0.01,WeatherCatV1.10B1784,2013-02-02 14:05:00,
2013-02-02 09:10:00,16.7,13.5,30.03,WSW,238,2.0,7.0,87,0.00,,,0.01,WeatherCatV1.10B1784,2013-02-02 14:10:00,
2013-02-02 09:16:00,16.8,13.6,30.03,WSW,239,6.0,9.0,87,0.00,,,0.01,WeatherCatV1.10B1784,2013-02-02 14:16:00,
2013-02-02 09:21:00,16.9,13.7,30.03,SSW,207,3.0,11.0,87,0.00,,,0.01,WeatherCatV1.10B1784,2013-02-02 14:21:00,
2013-02-02 09:26:00,17.1,13.9,30.03,SSW,205,7.0,7.0,87,0.00,,,0.01,WeatherCatV1.10B1784,2013-02-02 14:26:00,
2013-02-02 09:31:00,17.1,13.9,30.02,South,179,7.0,9.0,87,0.00,,,0.01,WeatherCatV1.10B1784,2013-02-02 14:31:00,
2013-02-02 09:36:00,17.3,14.1,30.03,South,182,3.0,7.0,87,0.00,,,0.01,WeatherCatV1.10B1784,2013-02-02 14:36:00,
2013-02-02 09:41:00,17.5,14.3,30.02,South,186,6.0,14.0,87,0.00,,,0.01,WeatherCatV1.10B1784,2013-02-02 14:41:00,
2013-02-02 09:46:00,17.7,14.2,30.02,South,190,5.0,7.0,86,0.00,,,0.01,WeatherCatV1.10B1784,2013-02-02 14:46:00,
2013-02-02 09:51:00,17.9,14.4,30.02,SSW,200,6.0,8.0,86,0.00,,,0.01,WeatherCatV1.10B1784,2013-02-02 14:51:00,
2013-02-02 09:56:00,18.0,14.5,30.02,SSW,203,2.0,10.0,86,0.00,,,0.01,WeatherCatV1.10B1784,2013-02-02 14:56:00,
2013-02-02 10:01:00,18.1,14.6,30.02,SW,215,8.0,8.0,86,0.00,,,0.01,WeatherCatV1.10B1784,2013-02-02 15:01:00,
2013-02-02 10:06:00,18.2,14.7,30.02,South,188,5.0,10.0,86,0.00,,,0.01,WeatherCatV1.10B1784,2013-02-02 15:06:00,
2013-02-02 10:11:00,18.4,14.9,30.01,SSW,192,3.0,5.0,86,0.00,,,0.01,WeatherCatV1.10B1784,2013-02-02 15:11:00,
2013-02-02 10:16:00,18.6,15.1,30.01,SSW,194,5.0,7.0,86,0.00,,,0.01,WeatherCatV1.10B1784,2013-02-02 15:16:00,
2013-02-02 10:21:00,18.8,15.1,30.01,SSW,194,4.0,8.0,85,0.00,,,0.01,WeatherCatV1.10B1784,2013-02-02 15:21:00,
2013-02-02 10:26:00,18.9,15.2,30.01,SW,215,3.0,7.0,85,0.00,,,0.01,WeatherCatV1.10B1784,2013-02-02 15:26:00,
2013-02-02 10:31:00,19.0,15.2,30.00,SSW,194,4.0,8.0,85,0.00,,,0.01,WeatherCatV1.10B1784,2013-02-02 15:31:00,
2013-02-02 10:36:00,19.0,15.2,30.00,WSW,242,3.0,5.0,85,0.00,,,0.01,WeatherCatV1.10B1784,2013-02-02 15:36:00,
2013-02-02 10:41:00,19.1,15.3,30.00,WSW,240,2.0,7.0,85,0.00,,,0.01,WeatherCatV1.10B1784,2013-02-02 15:41:00,
2013-02-02 10:46:00,19.2,15.4,30.00,SW,228,3.0,6.0,85,0.00,,,0.01,WeatherCatV1.10B1784,2013-02-02 15:46:00,
2013-02-02 10:51:00,19.4,15.6,30.00,South,190,2.0,8.0,85,0.00,,,0.01,WeatherCatV1.10B1784,2013-02-02 15:51:00,
2013-02-02 10:56:00,19.6,15.8,30.00,SW,221,2.0,5.0,85,0.00,,,0.01,WeatherCatV1.10B1784,2013-02-02 15:56:00,
2013-02-02 11:01:00,19.8,15.8,29.99,SSW,205,7.0,12.0,84,0.00,,,0.01,WeatherCatV1.10B1784,2013-02-02 16:01:00,
2013-02-02 11:06:00,19.9,15.9,29.99,SW,229,7.0,9.0,84,0.00,,,0.01,WeatherCatV1.10B1784,2013-02-02 16:06:00,
2013-02-02 11:11:00,20.2,16.2,29.99,WSW,237,5.0,7.0,84,0.00,,,0.01,WeatherCatV1.10B1784,2013-02-02 16:11:00,
2013-02-02 11:16:00,20.5,16.2,29.99,WSW,255,3.0,7.0,83,0.00,,,0.01,WeatherCatV1.10B1784,2013-02-02 16:16:00,
2013-02-02 11:21:00,20.7,16.4,29.99,SSW,212,2.0,5.0,83,0.00,,,0.01,WeatherCatV1.10B1784,2013-02-02 16:21:00,
2013-02-02 11:26:00,20.8,16.5,29.99,WSW,245,4.0,7.0,83,0.00,,,0.01,WeatherCatV1.10B1784,2013-02-02 16:26:00,
2013-02-02 11:31:00,20.9,16.6,29.99,SSW,200,3.0,7.0,83,0.00,,,0.01,WeatherCatV1.10B1784,2013-02-02 16:31:00,
2013-02-02 11:36:00,21.0,16.4,29.99,SSW,213,6.0,8.0,82,0.00,,,0.01,WeatherCatV1.10B1784,2013-02-02 16:36:00,
2013-02-02 11:41:00,21.0,16.7,29.98,WSW,255,6.0,7.0,83,0.00,,,0.01,WeatherCatV1.10B1784,2013-02-02 16:41:00,
2013-02-02 11:46:00,21.2,16.9,29.98,WSW,247,3.0,5.0,83,0.00,,,0.01,WeatherCatV1.10B1784,2013-02-02 16:46:00,
2013-02-02 11:51:00,21.3,17.0,29.98,WSW,254,3.0,8.0,83,0.00,,,0.01,WeatherCatV1.10B1784,2013-02-02 16:51:00,
2013-02-02 11:56:00,21.4,17.1,29.98,West,261,6.0,8.0,83,0.00,,,0.01,WeatherCatV1.10B1784,2013-02-02 16:56:00,
2013-02-02 12:01:00,21.5,16.9,29.98,SW,218,2.0,7.0,82,0.00,,,0.01,WeatherCatV1.10B1784,2013-02-02 17:01:00,
2013-02-02 12:06:00,21.4,16.8,29.97,WSW,255,2.0,6.0,82,0.00,,,0.01,WeatherCatV1.10B1784,2013-02-02 17:06:00,
2013-02-02 12:11:00,21.5,17.2,29.97,SSW,212,2.0,7.0,83,0.00,,,0.01,WeatherCatV1.10B1784,2013-02-02 17:11:00,
2013-02-02 12:16:00,21.6,17.3,29.97,West,265,8.0,9.0,83,0.00,,,0.01,WeatherCatV1.10B1784,2013-02-02 17:16:00,
2013-02-02 12:21:00,21.6,17.3,29.97,SSW,212,4.0,9.0,83,0.00,,,0.01,WeatherCatV1.10B1784,2013-02-02 17:21:00,
2013-02-02 12:26:00,21.7,17.3,29.97,SSW,192,7.0,7.0,83,0.00,,,0.01,WeatherCatV1.10B1784,2013-02-02 17:26:00,
2013-02-02 12:31:00,21.7,17.1,29.96,West,265,6.0,7.0,82,0.00,,,0.01,WeatherCatV1.10B1784,2013-02-02 17:31:00,
2013-02-02 12:36:00,21.6,17.3,29.96,SW,220,3.0,4.0,83,0.00,,,0.01,WeatherCatV1.10B1784,2013-02-02 17:36:00,
2013-02-02 12:41:00,21.8,17.7,29.96,WSW,248,2.0,3.0,84,0.00,,,0.01,WeatherCatV1.10B1784,2013-02-02 17:41:00,
2013-02-02 12:46:00,22.0,17.9,29.95,WSW,242,4.0,8.0,84,0.00,,,0.01,WeatherCatV1.10B1784,2013-02-02 17:46:00,
2013-02-02 12:51:00,22.0,17.9,29.95,WSW,242,3.0,9.0,84,0.00,,,0.01,WeatherCatV1.10B1784,2013-02-02 17:51:00,
2013-02-02 12:56:00,22.0,17.9,29.95,WSW,255,4.0,5.0,84,0.00,,,0.01,WeatherCatV1.10B1784,2013-02-02 17:56:00,
2013-02-02 13:01:00,22.1,18.0,29.95,WSW,254,3.0,5.0,84,0.00,,,0.01,WeatherCatV1.10B1784,2013-02-02 18:01:00,
2013-02-02 13:06:00,22.2,18.4,29.95,SW,228,4.0,5.0,85,0.00,,,0.01,WeatherCatV1.10B1784,2013-02-02 18:06:00,
2013-02-02 13:11:00,22.4,18.3,29.95,WSW,258,5.0,5.0,84,0.00,,,0.01,WeatherCatV1.10B1784,2013-02-02 18:11:00,
2013-02-02 13:16:00,22.4,18.3,29.95,West,265,7.0,9.0,84,0.00,,,0.01,WeatherCatV1.10B1784,2013-02-02 18:16:00,
2013-02-02 13:21:00,22.4,18.6,29.94,West,259,5.0,7.0,85,0.00,,,0.01,WeatherCatV1.10B1784,2013-02-02 18:21:00,
2013-02-02 13:26:00,22.3,19.0,29.94,WSW,252,3.0,5.0,87,0.00,,,0.01,WeatherCatV1.10B1784,2013-02-02 18:26:00,
2013-02-02 13:31:00,22.4,19.1,29.94,West,265,5.0,7.0,87,0.00,,,0.02,WeatherCatV1.10B1784,2013-02-02 18:31:00,
2013-02-02 13:36:00,22.4,19.4,29.94,West,279,5.0,5.0,88,0.00,,,0.02,WeatherCatV1.10B1784,2013-02-02 18:36:00,
2013-02-02 13:41:00,22.4,19.4,29.94,West,266,3.0,6.0,88,0.00,,,0.02,WeatherCatV1.10B1784,2013-02-02 18:41:00,
2013-02-02 13:46:00,22.5,19.5,29.94,West,263,5.0,7.0,88,0.00,,,0.02,WeatherCatV1.10B1784,2013-02-02 18:46:00,
2013-02-02 13:51:00,22.5,19.2,29.94,WSW,237,4.0,7.0,87,0.00,,,0.02,WeatherCatV1.10B1784,2013-02-02 18:51:00,
2013-02-02 13:56:00,22.5,19.2,29.94,SW,236,5.0,7.0,87,0.00,,,0.02,WeatherCatV1.10B1784,2013-02-02 18:56:00,
2013-02-02 14:01:00,22.5,19.2,29.94,West,261,7.0,7.0,87,0.00,,,0.02,WeatherCatV1.10B1784,2013-02-02 19:01:00,
2013-02-02 14:06:00,22.6,19.3,29.94,West,261,4.0,5.0,87,0.00,,,0.02,WeatherCatV1.10B1784,2013-02-02 19:06:00,
2013-02-02 14:11:00,22.7,19.4,29.94,WNW,298,4.0,7.0,87,0.00,,,0.02,WeatherCatV1.10B1784,2013-02-02 19:11:00,
2013-02-02 14:16:00,22.8,19.5,29.93,NW,309,4.0,5.0,87,0.00,,,0.02,WeatherCatV1.10B1784,2013-02-02 19:16:00,
2013-02-02 14:21:00,22.9,19.4,29.93,WNW,289,4.0,6.0,86,0.00,,,0.02,WeatherCatV1.10B1784,2013-02-02 19:21:00,
2013-02-02 14:26:00,23.0,19.5,29.93,WNW,290,3.0,5.0,86,0.00,,,0.02,WeatherCatV1.10B1784,2013-02-02 19:26:00,
2013-02-02 14:31:00,23.1,19.3,29.93,WNW,293,7.0,9.0,85,0.00,,,0.02,WeatherCatV1.10B1784,2013-02-02 19:31:00,
2013-02-02 14:36:00,23.0,19.2,29.93,WNW,299,5.0,8.0,85,0.00,,,0.02,WeatherCatV1.10B1784,2013-02-02 19:36:00,
2013-02-02 14:41:00,23.1,19.3,29.93,WNW,292,4.0,8.0,85,0.00,,,0.02,WeatherCatV1.10B1784,2013-02-02 19:41:00,
2013-02-02 14:46:00,23.2,19.4,29.93,WNW,291,2.0,6.0,85,0.00,,,0.02,WeatherCatV1.10B1784,2013-02-02 19:46:00,
2013-02-02 14:51:00,23.2,19.4,29.93,West,267,5.0,6.0,85,0.00,,,0.02,WeatherCatV1.10B1784,2013-02-02 19:51:00,
2013-02-02 14:56:00,23.2,19.4,29.93,WSW,252,4.0,4.0,85,0.00,,,0.02,WeatherCatV1.10B1784,2013-02-02 19:56:00,
2013-02-02 15:01:00,23.2,19.6,29.93,WNW,282,3.0,6.0,86,0.00,,,0.02,WeatherCatV1.10B1784,2013-02-02 20:01:00,
2013-02-02 15:06:00,23.4,19.6,29.93,WSW,257,5.0,7.0,85,0.00,,,0.02,WeatherCatV1.10B1784,2013-02-02 20:06:00,
2013-02-02 15:11:00,23.2,19.4,29.93,WSW,250,5.0,8.0,85,0.00,,,0.02,WeatherCatV1.10B1784,2013-02-02 20:11:00,
2013-02-02 15:16:00,23.1,19.3,29.93,West,263,3.0,4.0,85,0.00,,,0.02,WeatherCatV1.10B1784,2013-02-02 20:16:00,
2013-02-02 15:21:00,23.2,19.4,29.93,WNW,298,4.0,5.0,85,0.00,,,0.02,WeatherCatV1.10B1784,2013-02-02 20:21:00,
2013-02-02 15:26:00,23.2,19.4,29.93,WSW,255,6.0,7.0,85,0.00,,,0.02,WeatherCatV1.10B1784,2013-02-02 20:26:00,
2013-02-02 15:31:00,23.1,19.3,29.93,WNW,287,3.0,5.0,85,0.00,,,0.02,WeatherCatV1.10B1784,2013-02-02 20:31:00,
2013-02-02 15:36:00,23.0,19.2,29.93,WNW,299,4.0,7.0,85,0.00,,,0.02,WeatherCatV1.10B1784,2013-02-02 20:36:00,
2013-02-02 15:41:00,22.7,19.2,29.94,NNW,342,6.0,8.0,86,0.00,,,0.02,WeatherCatV1.10B1784,2013-02-02 20:41:00,
2013-02-02 15:46:00,22.0,18.7,29.94,NW,317,3.0,6.0,87,0.00,,,0.02,WeatherCatV1.10B1784,2013-02-02 20:46:00,
2013-02-02 15:51:00,21.3,18.0,29.94,NNW,341,4.0,8.0,87,0.00,,,0.02,WeatherCatV1.10B1784,2013-02-02 20:51:00,
2013-02-02 15:56:00,20.8,17.6,29.94,North,355,3.0,10.0,87,0.00,,,0.02,WeatherCatV1.10B1784,2013-02-02 20:56:00,
2013-02-02 16:01:00,20.6,17.6,29.95,NNW,334,3.0,7.0,88,0.00,,,0.02,WeatherCatV1.10B1784,2013-02-02 21:01:00,
2013-02-02 16:06:00,20.4,17.2,29.95,NNW,346,5.0,9.0,87,0.00,,,0.02,WeatherCatV1.10B1784,2013-02-02 21:06:00,
2013-02-02 16:11:00,20.1,16.6,29.95,North,349,3.0,8.0,86,0.00,,,0.02,WeatherCatV1.10B1784,2013-02-02 21:11:00,
2013-02-02 16:16:00,20.0,16.5,29.95,NNW,346,3.0,6.0,86,0.00,,,0.02,WeatherCatV1.10B1784,2013-02-02 21:16:00,
2013-02-02 16:21:00,20.0,16.5,29.95,NNW,328,6.0,6.0,86,0.00,,,0.02,WeatherCatV1.10B1784,2013-02-02 21:21:00,
2013-02-02 16:26:00,19.8,16.0,29.96,North,0,5.0,8.0,85,0.00,,,0.02,WeatherCatV1.10B1784,2013-02-02 21:26:00,
2013-02-02 16:31:00,19.7,15.9,29.96,NNW,343,6.0,7.0,85,0.00,,,0.02,WeatherCatV1.10B1784,2013-02-02 21:31:00,
2013-02-02 16:36:00,19.7,15.7,29.96,NNW,338,5.0,7.0,84,0.00,,,0.02,WeatherCatV1.10B1784,2013-02-02 21:36:00,
2013-02-02 16:41:00,19.5,15.7,29.96,NW,315,5.0,7.0,85,0.00,,,0.02,WeatherCatV1.10B1784,2013-02-02 21:41:00,
2013-02-02 16:46:00,19.4,15.6,29.96,NNW,338,4.0,4.0,85,0.00,,,0.02,WeatherCatV1.10B1784,2013-02-02 21:46:00,
2013-02-02 16:51:00,19.4,15.9,29.96,NNW,337,3.0,6.0,86,0.00,,,0.02,WeatherCatV1.10B1784,2013-02-02 21:51:00,
2013-02-02 16:56:00,19.4,15.6,29.96,NNW,337,5.0,7.0,85,0.00,,,0.02,WeatherCatV1.10B1784,2013-02-02 21:56:00,
2013-02-02 17:01:00,19.3,15.3,29.96,NNW,334,5.0,9.0,84,0.00,,,0.02,WeatherCatV1.10B1784,2013-02-02 22:01:00,
2013-02-02 17:06:00,19.2,15.2,29.96,NNW,341,5.0,7.0,84,0.00,,,0.02,WeatherCatV1.10B1784,2013-02-02 22:06:00,
2013-02-02 17:11:00,19.1,15.1,29.97,NNW,327,4.0,6.0,84,0.00,,,0.02,WeatherCatV1.10B1784,2013-02-02 22:11:00,
2013-02-02 17:16:00,18.9,14.9,29.97,NW,323,3.0,6.0,84,0.00,,,0.02,WeatherCatV1.10B1784,2013-02-02 22:16:00,
2013-02-02 17:21:00,18.8,14.8,29.97,NW,325,3.0,7.0,84,0.00,,,0.02,WeatherCatV1.10B1784,2013-02-02 22:21:00,
2013-02-02 17:26:00,18.7,15.0,29.97,NNW,329,3.0,5.0,85,0.00,,,0.02,WeatherCatV1.10B1784,2013-02-02 22:26:00,
2013-02-02 17:31:00,18.6,15.1,29.97,WNW,301,2.0,4.0,86,0.00,,,0.02,WeatherCatV1.10B1784,2013-02-02 22:31:00,
2013-02-02 17:36:00,18.5,15.0,29.98,NNW,338,3.0,3.0,86,0.00,,,0.02,WeatherCatV1.10B1784,2013-02-02 22:36:00,
2013-02-02 17:41:00,18.4,14.9,29.98,NNW,340,5.0,6.0,86,0.00,,,0.02,WeatherCatV1.10B1784,2013-02-02 22:41:00,
2013-02-02 17:46:00,18.2,15.0,29.98,NNW,343,2.0,4.0,87,0.00,,,0.02,WeatherCatV1.10B1784,2013-02-02 22:46:00,
2013-02-02 17:51:00,18.2,15.0,29.98,NNW,344,4.0,5.0,87,0.00,,,0.02,WeatherCatV1.10B1784,2013-02-02 22:51:00,
2013-02-02 17:56:00,18.0,14.8,29.98,NW,321,5.0,5.0,87,0.00,,,0.02,WeatherCatV1.10B1784,2013-02-02 22:56:00,
2013-02-02 18:01:00,17.8,14.3,29.98,NW,304,3.0,4.0,86,0.00,,,0.02,WeatherCatV1.10B1784,2013-02-02 23:01:00,
2013-02-02 18:06:00,17.6,14.4,29.98,WNW,302,2.0,5.0,87,0.00,,,0.02,WeatherCatV1.10B1784,2013-02-02 23:06:00,
2013-02-02 18:11:00,17.6,14.4,29.98,NNW,336,2.0,4.0,87,0.00,,,0.02,WeatherCatV1.10B1784,2013-02-02 23:11:00,
2013-02-02 18:16:00,17.5,14.3,29.98,NNW,344,3.0,5.0,87,0.00,,,0.02,WeatherCatV1.10B1784,2013-02-02 23:16:00,
2013-02-02 18:21:00,17.4,14.2,29.99,NW,319,3.0,5.0,87,0.00,,,0.02,WeatherCatV1.10B1784,2013-02-02 23:21:00,
2013-02-02 18:26:00,17.3,14.1,29.98,NNW,345,4.0,4.0,87,0.00,,,0.02,WeatherCatV1.10B1784,2013-02-02 23:26:00,
2013-02-02 18:31:00,17.3,13.8,29.99,NW,323,3.0,3.0,86,0.00,,,0.02,WeatherCatV1.10B1784,2013-02-02 23:31:00,
2013-02-02 18:36:00,17.2,13.5,29.99,North,355,2.0,4.0,85,0.00,,,0.02,WeatherCatV1.10B1784,2013-02-02 23:36:00,
2013-02-02 18:41:00,17.1,13.4,29.99,NNW,330,2.0,4.0,85,0.00,,,0.02,WeatherCatV1.10B1784,2013-02-02 23:41:00,
2013-02-02 18:46:00,17.1,13.1,29.99,NW,319,4.0,5.0,84,0.00,,,0.02,WeatherCatV1.10B1784,2013-02-02 23:46:00,
2013-02-02 18:51:00,17.0,13.0,29.99,NNW,333,2.0,3.0,84,0.00,,,0.02,WeatherCatV1.10B1784,2013-02-02 23:51:00,
2013-02-02 18:56:00,16.9,13.2,30.00,NW,323,2.0,2.0,85,0.00,,,0.02,WeatherCatV1.10B1784,2013-02-02 23:56:00,
2013-02-02 19:01:00,16.8,13.1,30.00,NNW,337,4.0,5.0,85,0.00,,,0.02,WeatherCatV1.10B1784,2013-02-03 00:01:00,
2013-02-02 19:06:00,16.8,13.1,30.00,NNW,335,2.0,4.0,85,0.00,,,0.02,WeatherCatV1.10B1784,2013-02-03 00:06:00,
2013-02-02 19:11:00,16.7,13.3,30.00,NNW,330,3.0,3.0,86,0.00,,,0.02,WeatherCatV1.10B1784,2013-02-03 00:11:00,
2013-02-02 19:16:00,16.7,13.3,30.00,NNW,338,2.0,3.0,86,0.00,,,0.02,WeatherCatV1.10B1784,2013-02-03 00:16:00,
2013-02-02 19:21:00,16.6,13.2,30.00,North,355,4.0,4.0,86,0.00,,,0.02,WeatherCatV1.10B1784,2013-02-03 00:21:00,
2013-02-02 19:26:00,16.6,13.2,30.00,NNW,327,4.0,4.0,86,0.00,,,0.02,WeatherCatV1.10B1784,2013-02-03 00:26:00,
2013-02-02 19:31:00,16.4,13.0,30.00,NNW,344,4.0,7.0,86,0.00,,,0.02,WeatherCatV1.10B1784,2013-02-03 00:31:00,
2013-02-02 19:36:00,16.4,13.0,30.00,NNW,335,4.0,6.0,86,0.00,,,0.02,WeatherCatV1.10B1784,2013-02-03 00:36:00,
2013-02-02 19:41:00,16.4,13.0,30.00,North,355,3.0,9.0,86,0.00,,,0.02,WeatherCatV1.10B1784,2013-02-03 00:41:00,
2013-02-02 19:46:00,16.2,12.5,30.00,NNW,344,2.0,7.0,85,0.00,,,0.02,WeatherCatV1.10B1784,2013-02-03 00:46:00,
2013-02-02 19:51:00,15.8,12.1,30.00,North,355,2.0,5.0,85,0.00,,,0.02,WeatherCatV1.10B1784,2013-02-03 00:51:00,
2013-02-02 19:56:00,15.3,11.4,30.00,North,349,5.0,6.0,84,0.00,,,0.02,WeatherCatV1.10B1784,2013-02-03 00:56:00,
2013-02-02 20:01:00,15.0,11.1,30.00,NNW,346,4.0,7.0,84,0.00,,,0.02,WeatherCatV1.10B1784,2013-02-03 01:01:00,
2013-02-02 20:06:00,14.7,10.8,30.00,NNW,339,3.0,4.0,84,0.00,,,0.02,WeatherCatV1.10B1784,2013-02-03 01:06:00,
2013-02-02 20:11:00,14.4,10.7,30.01,NNW,348,3.0,6.0,85,0.00,,,0.02,WeatherCatV1.10B1784,2013-02-03 01:11:00,
2013-02-02 20:16:00,14.2,10.5,30.01,NNW,341,2.0,5.0,85,0.00,,,0.02,WeatherCatV1.10B1784,2013-02-03 01:16:00,
2013-02-02 20:21:00,13.9,10.2,30.01,NNW,335,2.0,4.0,85,0.00,,,0.02,WeatherCatV1.10B1784,2013-02-03 01:21:00,
2013-02-02 20:26:00,13.7,10.0,30.01,NNW,327,3.0,3.0,85,0.00,,,0.02,WeatherCatV1.10B1784,2013-02-03 01:26:00,
2013-02-02 20:31:00,13.4,9.8,30.01,NNW,333,0.0,1.0,85,0.00,,,0.02,WeatherCatV1.10B1784,2013-02-03 01:31:00,
2013-02-02 20:36:00,13.1,9.7,30.01,NNW,333,0.0,1.0,86,0.00,,,0.02,WeatherCatV1.10B1784,2013-02-03 01:36:00,
2013-02-02 20:41:00,12.7,9.3,30.01,NNW,333,0.0,2.0,86,0.00,,,0.02,WeatherCatV1.10B1784,2013-02-03 01:41:00,
2013-02-02 20:46:00,12.4,9.0,30.01,NNW,333,0.0,0.0,86,0.00,,,0.02,WeatherCatV1.10B1784,2013-02-03 01:46:00,
2013-02-02 20:51:00,12.1,8.7,30.01,NNW,333,0.0,0.0,86,0.00,,,0.02,WeatherCatV1.10B1784,2013-02-03 01:51:00,
2013-02-02 20:56:00,12.0,8.9,30.01,NNW,333,0.0,0.0,87,0.00,,,0.02,WeatherCatV1.10B1784,2013-02-03 01:56:00,
2013-02-02 21:01:00,11.8,8.7,30.01,NNW,333,0.0,0.0,87,0.00,,,0.02,WeatherCatV1.10B1784,2013-02-03 02:01:00,
2013-02-02 21:06:00,11.7,8.6,30.01,NNW,333,0.0,0.0,87,0.00,,,0.02,WeatherCatV1.10B1784,2013-02-03 02:06:00,
2013-02-02 21:11:00,11.6,8.5,30.01,NNW,333,0.0,0.0,87,0.00,,,0.02,WeatherCatV1.10B1784,2013-02-03 02:11:00,
2013-02-02 21:16:00,11.6,8.7,30.01,NNW,333,0.0,0.0,88,0.00,,,0.02,WeatherCatV1.10B1784,2013-02-03 02:16:00,
2013-02-02 21:21:00,11.6,8.7,30.01,NNW,333,0.0,0.0,88,0.00,,,0.02,WeatherCatV1.10B1784,2013-02-03 02:21:00,
2013-02-02 21:26:00,11.6,8.5,30.01,NNW,333,0.0,0.0,87,0.00,,,0.02,WeatherCatV1.10B1784,2013-02-03 02:26:00,
2013-02-02 21:31:00,11.5,8.4,30.01,NNW,333,0.0,0.0,87,0.00,,,0.02,WeatherCatV1.10B1784,2013-02-03 02:31:00,
2013-02-02 21:36:00,11.3,8.2,30.01,NNW,333,0.0,0.0,87,0.00,,,0.02,WeatherCatV1.10B1784,2013-02-03 02:36:00,
2013-02-02 21:41:00,11.1,8.0,30.01,NNW,333,0.0,0.0,87,0.00,,,0.02,WeatherCatV1.10B1784,2013-02-03 02:41:00,
2013-02-02 21:46:00,11.0,7.9,30.01,NNW,333,0.0,0.0,87,0.00,,,0.02,WeatherCatV1.10B1784,2013-02-03 02:46:00,
2013-02-02 21:51:00,10.8,7.7,30.01,NNW,333,0.0,0.0,87,0.00,,,0.02,WeatherCatV1.10B1784,2013-02-03 02:51:00,
2013-02-02 21:56:00,10.6,7.3,30.01,NNW,333,0.0,0.0,86,0.00,,,0.02,WeatherCatV1.10B1784,2013-02-03 02:56:00,
2013-02-02 22:01:00,10.4,6.8,30.01,NNW,333,0.0,0.0,85,0.00,,,0.02,WeatherCatV1.10B1784,2013-02-03 03:01:00,
2013-02-02 22:06:00,10.1,6.5,30.01,NNW,333,0.0,0.0,85,0.00,,,0.02,WeatherCatV1.10B1784,2013-02-03 03:06:00,
2013-02-02 22:11:00,9.8,6.5,30.01,NNW,333,0.0,0.0,86,0.00,,,0.02,WeatherCatV1.10B1784,2013-02-03 03:11:00,
2013-02-02 22:16:00,9.8,6.7,30.01,NNW,333,0.0,0.0,87,0.00,,,0.02,WeatherCatV1.10B1784,2013-02-03 03:16:00,
2013-02-02 22:21:00,9.8,6.7,30.01,NNW,333,0.0,0.0,87,0.00,,,0.02,WeatherCatV1.10B1784,2013-02-03 03:21:00,
2013-02-02 22:26:00,9.8,6.7,30.01,NNW,333,0.0,0.0,87,0.00,,,0.02,WeatherCatV1.10B1784,2013-02-03 03:26:00,
2013-02-02 22:31:00,9.6,6.0,30.01,NNW,333,0.0,0.0,85,0.00,,,0.02,WeatherCatV1.10B1784,2013-02-03 03:31:00,
2013-02-02 22:36:00,9.0,5.2,30.01,NNW,333,0.0,0.0,84,0.00,,,0.02,WeatherCatV1.10B1784,2013-02-03 03:36:00,
2013-02-02 22:41:00,8.9,5.3,30.01,NNW,333,0.0,0.0,85,0.00,,,0.02,WeatherCatV1.10B1784,2013-02-03 03:41:00,
2013-02-02 22:46:00,8.6,4.8,30.01,NNW,333,0.0,0.0,84,0.00,,,0.02,WeatherCatV1.10B1784,2013-02-03 03:46:00,
2013-02-02 22:51:00,8.2,4.4,30.01,NNW,333,0.0,0.0,84,0.00,,,0.02,WeatherCatV1.10B1784,2013-02-03 03:51:00,
2013-02-02 22:56:00,7.7,3.9,30.01,NNW,333,0.0,0.0,84,0.00,,,0.02,WeatherCatV1.10B1784,2013-02-03 03:56:00,
2013-02-02 23:01:00,7.2,3.7,30.01,NNW,333,0.0,0.0,85,0.00,,,0.02,WeatherCatV1.10B1784,2013-02-03 04:01:00,
2013-02-02 23:06:00,6.8,3.3,30.00,NNW,333,0.0,0.0,85,0.00,,,0.02,WeatherCatV1.10B1784,2013-02-03 04:06:00,
2013-02-02 23:11:00,6.6,3.3,30.00,NNW,333,0.0,0.0,86,0.00,,,0.02,WeatherCatV1.10B1784,2013-02-03 04:11:00,
2013-02-02 23:16:00,6.4,3.1,30.00,NNW,333,0.0,0.0,86,0.00,,,0.02,WeatherCatV1.10B1784,2013-02-03 04:16:00,
2013-02-02 23:21:00,6.3,2.8,30.00,NNW,333,0.0,0.0,85,0.00,,,0.02,WeatherCatV1.10B1784,2013-02-03 04:21:00,
2013-02-02 23:26:00,6.2,2.7,30.00,NNW,333,0.0,0.0,85,0.00,,,0.02,WeatherCatV1.10B1784,2013-02-03 04:26:00,
2013-02-02 23:31:00,5.9,2.6,30.00,NNW,333,0.0,0.0,86,0.00,,,0.02,WeatherCatV1.10B1784,2013-02-03 04:31:00,
2013-02-02 23:36:00,5.8,2.5,30.00,NNW,333,0.0,0.0,86,0.00,,,0.02,WeatherCatV1.10B1784,2013-02-03 04:36:00,
2013-02-02 23:41:00,5.7,2.4,30.00,NNW,333,0.0,0.0,86,0.00,,,0.02,WeatherCatV1.10B1784,2013-02-03 04:41:00,
2013-02-02 23:46:00,5.6,2.3,30.00,NNW,333,0.0,0.0,86,0.00,,,0.02,WeatherCatV1.10B1784,2013-02-03 04:46:00,
2013-02-02 23:51:00,5.6,2.6,30.00,NNW,333,0.0,0.0,87,0.00,,,0.02,WeatherCatV1.10B1784,2013-02-03 04:51:00,
2013-02-02 23:56:00,5.6,2.3,30.00,NNW,333,0.0,0.0,86,0.00,,,0.02,WeatherCatV1.10B1784,2013-02-03 04:56:00,